STARLINK-32845, 62815

Orbit data source: Space-Track

STARLINK-32845, 62815 is a payload satellite owned by SpaceX/Seattle (US) in LEO that was launched on Fri, 24 Jan 2025 UTC via an FALCON 9 launch vehicle from the Air Force Western Test Range (AFWTR). Payload-class satellites include a variety of spacecraft equipped with specific instruments for various scientific and technological missions. These include communications satellites like Starlink; space stations such as the ISS; scientific satellites like the Hubble; Earth observation satellites from companies like Planet Labs, Umbra, and HawkEye 360; GPS; miniature CubeSats for education and research; and military/defense satellites.

Loading next visibility...
Identifier
62815, 2025-018K
Orbit
LEO
Country
Flag of USUS
Related business
Manufacturer
SpaceX/Seattle
Mission
Operational spacecraft
Bus & Motor
STARLINK V2M, Unknown motor
Mass
730 kg wet, ~700 kg dry
Launch date (UTC)
2025-01-24 (11 months ago)
Launch vehicle
FALCON 9
Launch site
Air Force Western Test Range (AFWTR)
Object type
Payload
Rocket body
Debris
Shape & HBR
Unknown shape, 17.7 m
Radar Cross Section
Large (>1 m²)

Expand to show TLE details & history
Last TLE update: 23 hours ago

TLE from 23 hours ago
0 STARLINK-32845
1 62815U 25018K   25346.31236820 -.00005243  00000-0 -16510-3 0  9995
2 62815  53.1602 355.2356 0001336  76.1830 283.9319 15.30182324 49791
Epoch: 2025-12-12T07:29Z
TLE epoch observation values (Epoch: 2025-12-12T07:29:48.612Z)
Latitude
-0.00005°
Longitude
161.52722°
Altitude
475.947 km
Speed
7.629 km/s
True Right ascension
23h 40m 56s
True Declination
0° 00' 00"
Sunlit
Object was in daylight at epoch
Visualization orbit readout
Latitude
Unknown
Longitude
Unknown
Altitude
Unknown
Speed
Unknown
Apparent Right ascension
Unknown
Apparent Declination
Unknown
Sunlit
N/A
Visualization observer readout
Local Sidereal Time
05:21:58
Azimuth
Unknown
Elevation
Unknown
Doppler factor
Unknown
Orbital elements
Apogee altitude
476.44 km
Perigee altitude
474.609 km
Semi-major axis
6,853.661 km
Eccentricity
0.00013
Inclination
53.1602°
RAAN
355.2356°
Arg. of periapsis
76.183°
True anomaly
283.91704°
Mean anomaly
283.9319°
Eccentric anomaly
283.92447°
Mean motion
3.82524 °/min
Orbital period
94.11 mins
BSTAR
-0.0001651
Loading maneuver chart data...
Computing Atmospheric mass density...
Loading historical data...
Loading historical data...
Loading historical data...
Loading historical data...
Loading historical data...
Loading historical data...
Loading historical data...

Documentation

Showing up to 5 results
|